Regional Weather Roundup
Issued by NWS Little Rock, AR

Home | Current Version | Previous Version | Text Only | Print | Product List | Glossary On
Versions: 1 2 3 4 5 6 7 8 9 10 11 12 13 14 15 16 17 18 19 20 21 22 23 24 25 26 27
000
ASUS44 KLZK 271605
RWRLZK

WEATHER ROUNDUP FOR ARKANSAS
NATIONAL WEATHER SERVICE LITTLE ROCK AR
1100 AM CDT FRI MAY 27 2016

NOTE: "FAIR" INDICATES FEW OR NO CLOUDS BELOW 12,000 FEET WITH NO
SIGNIFICANT WEATHER AND/OR OBSTRUCTIONS TO VISIBILITY.

ARZ001-003-010-029-271700-
NORTHWEST ARKANSAS

CITY           SKY/WX    TMP DP  RH WIND       PRES   REMARKS
FAYETTEVILLE   PTSUNNY   70  67  90 S13       29.81F
FORT SMITH     CLOUDY    76  66  71 S7        29.80R
HARRISON       CLOUDY    72  66  81 S6        29.84S
BENTONVILLE    CLOUDY    72  63  73 S9G21     29.81F
ROGERS           N/A     72  65  78 S13       29.81F
SILOAM SPGS    CLOUDY    70  59  68 S12       29.79F
HIGHFILL       LGT RAIN  71  67  87 S14       29.80F
SPRINGDALE     CLOUDY    72  66  83 S10G17    29.84F
$$

ARZ004-005-016-271700-
NORTH CENTRAL ARKANSAS

CITY           SKY/WX    TMP DP  RH WIND       PRES   REMARKS
BATESVILLE     CLOUDY    79  70  73 S10G18    29.87F
FLIPPIN        CLOUDY   N/A N/A N/A S6        29.80S
$$

ARZ040-041-271700-
WEST CENTRAL ARKANSAS

CITY           SKY/WX    TMP DP  RH WIND       PRES   REMARKS
MENA           PTSUNNY   77  68  73 CALM      29.84S
MOUNT IDA      LGT RAIN  73  66  78 E5        29.82F
$$

ARZ009-017-025-026-028-271700-
NORTHEAST ARKANSAS

CITY           SKY/WX    TMP DP  RH WIND       PRES   REMARKS
CORNING          N/A     75  75 100 S15       29.89F
JONESBORO      CLOUDY    76  71  85 S13       29.90R
NEWPORT        CLOUDY    77  74  90 S20       29.89S
WALNUT RIDGE   CLOUDY    75  70  83 S18       29.88S
BLYTHEVILLE    MOSUNNY   76  69  79 S17G25    29.93S
NW BLYTHEVILLE CLOUDY    77  70  78 S15G22    29.91S
$$

ARZ022-023-033-042-044-271700-
CENTRAL ARKANSAS

CITY           SKY/WX    TMP DP  RH WIND       PRES   REMARKS
LITTLE ROCK    PTSUNNY   78  71  79 MISG      29.87S
N LITTLE ROCK    N/A     77  71  82 S9        29.85S
JACKSONVILLE   CLOUDY    75  72  88 S8        29.86F
SEARCY         CLOUDY    75  72  88 S10       29.89S
CLINTON        PTSUNNY   77  70  78 S6        29.86S
$$

ARZ036-271700-
EAST ARKANSAS

CITY           SKY/WX    TMP DP  RH WIND       PRES   REMARKS
WEST MEMPHIS   CLOUDY    76  70  82 S17       29.93R
$$

ARZ050-053-066-070-073-271700-
SOUTHWEST ARKANSAS

CITY           SKY/WX    TMP DP  RH WIND       PRES   REMARKS
ARKADELPHIA    LGT RAIN  74  73  96 VRB5      29.87S
CAMDEN         CLOUDY    72  66  83 S10       29.90R
TEXARKANA      CLOUDY    74  67  78 SW13      29.90R
EL DORADO      CLOUDY    71  70  96 NW3       29.91R
DE QUEEN       CLOUDY    73  69  87 S8        29.83R
$$

ARZ056-057-069-271700-
SOUTHEAST ARKANSAS

CITY           SKY/WX    TMP DP  RH WIND       PRES   REMARKS
PINE BLUFF     CLOUDY    74  70  87 SE10      29.89S
STUTTGART      CLOUDY    73  66  78 S20       29.90R
MONTICELLO     RAIN      73  70  90 SE12G20   29.92R FOG

$$






USA.gov is the U.S. government's official web portal to all federal, state and local government web resources and services.